Weather in Chibirley

Russia / Penza Oblast     52°58′49″N   46°37′17″E
temp.,
°C
wind,
m/s
gust,
m/s
humid.,
%
clouds,
%
prec.,
mm/h
press.,
hPa
HPBL,
m
1 march, mon
mon100:00−19nnw239868 0.0 101944
03:00−19nw339934 0.0 102148
06:00−19nw23990 0.0 102232
09:00−15nw36940 0.0 1024222
12:00−10nw358872 0.0 1024402
15:00−8wnw468984 0.0 1024511
18:00−12w369798 0.0 102397
21:00−14w389888 0.1 1023150
2 march, tue
tue200:00−11wsw41196100 0.0 1020287
03:00−8wsw61594100 0.1 1017541
06:00−5wsw71495100 0.7 1013595
09:00−3wsw71495100 1.7 1011661
12:00−1wsw81393100 0.3 1007789
15:000w71399100 1.4 1005874
18:000wnw61098100 1.6 1004650
21:00−4wnw379597 1.8 1005144
3 march, wed
wed300:00−5wnw3697100 0.2 1005151
03:00−7wnw369797 0.4 1006105
06:00−9wnw369884 0.0 1006111
09:00−6nw479589 0.1 1007311
12:00−3nw5789100 0.1 1007841
15:00−4nw6884100 0.4 1008998
18:00−7nw41193100 0.1 1010531
21:00−7nw51291100 0.2 1012733
4 march, thu
thu400:00−11w499688 0.0 1012201
03:00−9w4119693 0.1 1012303
06:00−7w51295100 0.1 1011433
09:00−4w71191100 0.3 1010810
12:00−3wsw81290100 0.2 1008973
15:00−1wsw81488100 0.3 1006888
18:00−1wsw91690100 0.0 1003996
21:00−1wsw91786100 0.0 10021065
5 march, fri
fri500:00−2wsw8168598 0.0 1001956
03:00−1wsw8169099 0.1 1001898
06:00−1wnw61195100 0.8 1004744
09:00−3nw368897 0.9 1007421
12:00−2nw248358 0.0 1009638
15:00−2wnw237779 0.0 1011740
18:00−6nw128780 0.0 101321
21:00−9n128885 0.0 101521